AAL3292 KSAN-KPHX

Flight info

Callsign AAL3292
Flight time 0h 48m
Altitude 31000
Route ZZOOO4 HOGGZ HYDRR1
Aircraft A321/M-SDE3FGHIRWY/LB1

Departure

Time 2026-04-26 16:53
Airport San Diego International Airport (KSAN)

Arrival

Time 2026-04-26 17:42
Airport Phoenix Sky Harbor International Airport (KPHX)
Time Latitude Longitude Altitude Speed Heading
2026-04-26 16:24 32.73390 -117.20464 24 ft 0 kts 87°
2026-04-26 16:41 32.73389 -117.20481 25 ft 4 kts 84°
2026-04-26 16:41 32.73385 -117.20512 25 ft 4 kts 75°
2026-04-26 16:42 32.73376 -117.20542 26 ft 4 kts 57°
2026-04-26 16:42 32.73359 -117.20563 25 ft 4 kts 14°
2026-04-26 16:42 32.73354 -117.20564 24 ft 0 kts
2026-04-26 16:45 32.73355 -117.20564 24 ft 1 kts
2026-04-26 16:45 32.73370 -117.20562 24 ft 4 kts
2026-04-26 16:45 32.73412 -117.20559 24 ft 9 kts
2026-04-26 16:45 32.73484 -117.20547 22 ft 12 kts 27°
2026-04-26 16:46 32.73546 -117.20465 19 ft 14 kts 50°
2026-04-26 16:46 32.73591 -117.20366 21 ft 13 kts 91°
2026-04-26 16:46 32.73569 -117.20269 25 ft 11 kts 106°
2026-04-26 16:46 32.73548 -117.20179 30 ft 12 kts 105°
2026-04-26 16:47 32.73522 -117.20074 26 ft 16 kts 107°
2026-04-26 16:47 32.73490 -117.19944 26 ft 17 kts 106°
2026-04-26 16:47 32.73458 -117.19810 27 ft 18 kts 106°
2026-04-26 16:47 32.73420 -117.19657 27 ft 20 kts 106°
2026-04-26 16:48 32.73381 -117.19495 27 ft 21 kts 106°
2026-04-26 16:48 32.73339 -117.19323 25 ft 23 kts 106°
2026-04-26 16:48 32.73295 -117.19140 26 ft 23 kts 106°
2026-04-26 16:48 32.73252 -117.18963 26 ft 23 kts 106°
2026-04-26 16:49 32.73209 -117.18784 31 ft 22 kts 106°
2026-04-26 16:49 32.73166 -117.18606 24 ft 23 kts 106°
2026-04-26 16:49 32.73122 -117.18421 24 ft 21 kts 106°
2026-04-26 16:49 32.73080 -117.18253 23 ft 22 kts 107°
2026-04-26 16:50 32.73037 -117.18076 20 ft 23 kts 106°
2026-04-26 16:50 32.72998 -117.17913 20 ft 20 kts 106°
2026-04-26 16:50 32.72957 -117.17760 17 ft 14 kts 108°
2026-04-26 16:50 32.72953 -117.17698 18 ft 0 kts 82°
2026-04-26 16:51 32.72956 -117.17678 18 ft 5 kts 77°
2026-04-26 16:51 32.72973 -117.17624 22 ft 9 kts 57°
2026-04-26 16:51 32.73026 -117.17621 21 ft 8 kts 309°
2026-04-26 16:52 32.73035 -117.17649 20 ft 0 kts 285°
2026-04-26 16:52 32.73037 -117.17657 20 ft 3 kts 285°
2026-04-26 16:52 32.73077 -117.17826 22 ft 58 kts 285°
2026-04-26 16:53 32.73269 -117.18613 24 ft 136 kts 286°
2026-04-26 16:53 32.73568 -117.19828 612 ft 155 kts 286°
2026-04-26 16:53 32.73874 -117.21066 1678 ft 153 kts 287°
2026-04-26 16:53 32.74157 -117.22240 2554 ft 143 kts 286°
2026-04-26 16:54 32.74434 -117.23424 2949 ft 154 kts 286°
2026-04-26 16:54 32.74724 -117.24693 3323 ft 165 kts 285°
2026-04-26 16:54 32.75035 -117.26066 3625 ft 182 kts 285°
2026-04-26 16:54 32.75377 -117.27579 3927 ft 198 kts 285°
2026-04-26 16:55 32.75748 -117.29215 4219 ft 214 kts 284°
2026-04-26 16:55 32.76114 -117.31018 4583 ft 231 kts 282°
2026-04-26 16:55 32.76323 -117.32909 5378 ft 233 kts 266°
2026-04-26 16:55 32.75748 -117.34705 6084 ft 241 kts 230°
2026-04-26 16:56 32.72551 -117.35465 7496 ft 264 kts 156°
2026-04-26 16:56 32.71064 -117.34091 8185 ft 272 kts 137°
2026-04-26 16:56 32.69727 -117.32478 8905 ft 277 kts 136°
2026-04-26 16:57 32.68392 -117.30803 9567 ft 282 kts 135°
2026-04-26 16:57 32.67031 -117.29084 10162 ft 289 kts 136°
2026-04-26 16:57 32.64214 -117.25576 11388 ft 300 kts 127°
2026-04-26 16:58 32.63213 -117.23376 11956 ft 310 kts 110°
2026-04-26 16:58 32.62840 -117.21706 12052 ft 325 kts 97°
2026-04-26 16:58 32.62247 -117.14966 12416 ft 377 kts 96°
2026-04-26 16:59 32.62107 -117.11813 12819 ft 388 kts 86°
2026-04-26 16:59 32.63472 -117.05543 13954 ft 396 kts 66°
2026-04-26 17:00 32.65498 -116.99382 15011 ft 406 kts 66°
2026-04-26 17:00 32.66712 -116.92760 16079 ft 418 kts 89°
2026-04-26 17:00 32.66782 -116.89297 16642 ft 422 kts 90°
2026-04-26 17:01 32.66858 -116.85800 17187 ft 426 kts 90°
2026-04-26 17:01 32.66940 -116.82264 17679 ft 431 kts 90°
2026-04-26 17:01 32.67023 -116.78688 18237 ft 435 kts 90°
2026-04-26 17:01 32.67109 -116.75082 18715 ft 440 kts 90°
2026-04-26 17:02 32.67142 -116.71441 19184 ft 443 kts 92°
2026-04-26 17:02 32.67105 -116.67774 19683 ft 446 kts 94°
2026-04-26 17:02 32.67024 -116.64082 20173 ft 450 kts 94°
2026-04-26 17:02 32.66927 -116.60362 20678 ft 453 kts 95°
2026-04-26 17:03 32.66831 -116.56606 21159 ft 457 kts 95°
2026-04-26 17:03 32.66747 -116.52832 21648 ft 460 kts 94°
2026-04-26 17:03 32.66673 -116.49019 22110 ft 464 kts 95°
2026-04-26 17:03 32.66606 -116.45131 22580 ft 467 kts 94°
2026-04-26 17:04 32.66683 -116.41250 23021 ft 474 kts 86°
2026-04-26 17:04 32.67048 -116.37402 23444 ft 477 kts 86°
2026-04-26 17:04 32.67415 -116.33470 23822 ft 481 kts 86°
2026-04-26 17:04 32.67778 -116.29456 24174 ft 485 kts 86°
2026-04-26 17:05 32.68133 -116.25459 24488 ft 489 kts 87°
2026-04-26 17:05 32.68489 -116.21436 24856 ft 491 kts 87°
2026-04-26 17:05 32.68847 -116.17390 25206 ft 495 kts 87°
2026-04-26 17:05 32.69210 -116.13314 25533 ft 498 kts 87°
2026-04-26 17:06 32.69574 -116.09211 25845 ft 502 kts 87°
2026-04-26 17:06 32.69941 -116.05077 26148 ft 505 kts 87°
2026-04-26 17:06 32.70314 -116.00910 26443 ft 509 kts 87°
2026-04-26 17:06 32.70699 -115.96721 26742 ft 513 kts 87°
2026-04-26 17:07 32.71096 -115.92498 27030 ft 517 kts 87°
2026-04-26 17:07 32.71499 -115.88233 27300 ft 521 kts 87°
2026-04-26 17:07 32.71900 -115.83943 27593 ft 525 kts 87°
2026-04-26 17:07 32.72299 -115.79622 27888 ft 528 kts 87°
2026-04-26 17:08 32.72699 -115.75276 28171 ft 531 kts 87°
2026-04-26 17:08 32.73097 -115.70904 28481 ft 534 kts 88°
2026-04-26 17:08 32.73493 -115.66496 28677 ft 539 kts 88°
2026-04-26 17:08 32.73891 -115.62063 28933 ft 543 kts 88°
2026-04-26 17:09 32.74293 -115.57593 29174 ft 546 kts 88°
2026-04-26 17:09 32.74428 -115.56077 29266 ft 547 kts 88°
2026-04-26 17:09 32.75046 -115.48567 29712 ft 551 kts 90°
2026-04-26 17:09 32.75270 -115.44020 29986 ft 552 kts 92°
2026-04-26 17:10 32.75380 -115.39454 30236 ft 554 kts 94°
2026-04-26 17:10 32.75418 -115.34873 30495 ft 555 kts 95°
2026-04-26 17:10 32.75434 -115.30285 30761 ft 557 kts 95°
2026-04-26 17:10 32.75466 -115.25681 30935 ft 556 kts 95°
2026-04-26 17:11 32.75536 -115.21089 30971 ft 541 kts 94°
2026-04-26 17:11 32.75641 -115.16657 30965 ft 533 kts 94°
2026-04-26 17:11 32.75882 -115.07896 30965 ft 529 kts 94°
2026-04-26 17:12 32.76170 -114.94796 30958 ft 529 kts 94°
2026-04-26 17:13 32.76414 -114.81691 30966 ft 529 kts 94°
2026-04-26 17:14 32.76642 -114.69990 30976 ft 530 kts 94°
2026-04-26 17:14 32.76887 -114.56865 30982 ft 530 kts 95°
2026-04-26 17:15 32.77065 -114.43734 30988 ft 530 kts 95°
2026-04-26 17:16 32.77162 -114.34980 30931 ft 530 kts 95°
2026-04-26 17:16 32.77263 -114.26227 30945 ft 530 kts 95°
2026-04-26 17:17 32.77366 -114.17472 30951 ft 530 kts 95°
2026-04-26 17:17 32.77461 -114.08711 30950 ft 530 kts 94°
2026-04-26 17:17 32.77739 -114.04339 30583 ft 534 kts 87°
2026-04-26 17:18 32.78213 -113.99961 30038 ft 532 kts 86°
2026-04-26 17:18 32.78703 -113.95626 29519 ft 528 kts 86°
2026-04-26 17:18 32.79196 -113.91326 29060 ft 523 kts 86°
2026-04-26 17:18 32.79683 -113.87063 28596 ft 518 kts 86°
2026-04-26 17:19 32.80606 -113.78693 27687 ft 498 kts 86°
2026-04-26 17:19 32.81103 -113.74574 27236 ft 497 kts 81°
2026-04-26 17:19 32.82041 -113.70684 26837 ft 496 kts 69°
2026-04-26 17:20 32.83549 -113.66951 26406 ft 493 kts 57°
2026-04-26 17:20 32.84806 -113.64719 26131 ft 489 kts 49°
2026-04-26 17:20 32.87758 -113.60662 25570 ft 484 kts 44°
2026-04-26 17:20 32.89992 -113.57673 25134 ft 483 kts 44°
2026-04-26 17:21 32.92213 -113.54680 24706 ft 482 kts 44°
2026-04-26 17:21 32.94420 -113.51692 24280 ft 477 kts 45°
2026-04-26 17:21 32.96570 -113.48772 23802 ft 461 kts 45°
2026-04-26 17:21 32.98644 -113.45953 23367 ft 447 kts 44°
2026-04-26 17:22 33.00689 -113.43177 22898 ft 445 kts 44°
2026-04-26 17:22 33.02730 -113.40415 22460 ft 442 kts 44°
2026-04-26 17:22 33.04755 -113.37676 22040 ft 439 kts 44°
2026-04-26 17:22 33.06768 -113.34959 21679 ft 435 kts 44°
2026-04-26 17:23 33.08773 -113.32256 21421 ft 435 kts 44°
2026-04-26 17:23 33.10778 -113.29558 21159 ft 433 kts 44°
2026-04-26 17:23 33.12766 -113.26880 20890 ft 430 kts 44°
2026-04-26 17:23 33.14738 -113.24215 20619 ft 428 kts 44°
2026-04-26 17:24 33.16701 -113.21554 20342 ft 425 kts 44°
2026-04-26 17:24 33.18646 -113.18914 20081 ft 422 kts 45°
2026-04-26 17:24 33.20581 -113.16287 19827 ft 420 kts 44°
2026-04-26 17:24 33.22503 -113.13674 19551 ft 417 kts 45°
2026-04-26 17:25 33.24376 -113.11036 19277 ft 416 kts 51°
2026-04-26 17:25 33.25900 -113.08089 19018 ft 417 kts 63°
2026-04-26 17:25 33.26963 -113.04881 18762 ft 415 kts 75°
2026-04-26 17:25 33.27527 -113.01529 18454 ft 408 kts 87°
2026-04-26 17:26 33.27659 -112.98166 18160 ft 404 kts 92°
2026-04-26 17:26 33.27740 -112.94779 17901 ft 401 kts 92°
2026-04-26 17:26 33.27823 -112.91443 17630 ft 400 kts 92°
2026-04-26 17:26 33.27904 -112.88137 17348 ft 397 kts 92°
2026-04-26 17:27 33.27982 -112.84859 17084 ft 391 kts 92°
2026-04-26 17:27 33.28070 -112.81635 16769 ft 386 kts 90°
2026-04-26 17:27 33.28267 -112.78451 16489 ft 381 kts 87°
2026-04-26 17:27 33.28556 -112.75319 16197 ft 379 kts 85°
2026-04-26 17:28 33.28889 -112.72205 15846 ft 376 kts 84°
2026-04-26 17:28 33.29228 -112.69124 15481 ft 372 kts 85°
2026-04-26 17:28 33.29553 -112.66074 15120 ft 369 kts 85°
2026-04-26 17:28 33.29859 -112.63040 14769 ft 366 kts 86°
2026-04-26 17:29 33.30146 -112.60024 14427 ft 363 kts 86°
2026-04-26 17:29 33.30328 -112.58047 14224 ft 360 kts 86°
2026-04-26 17:29 33.30689 -112.54082 13767 ft 356 kts 86°
2026-04-26 17:29 33.30957 -112.51154 13423 ft 352 kts 86°
2026-04-26 17:30 33.31222 -112.48257 12997 ft 349 kts 86°
2026-04-26 17:30 33.31484 -112.45391 12539 ft 345 kts 86°
2026-04-26 17:30 33.31745 -112.42561 12259 ft 340 kts 86°
2026-04-26 17:30 33.32002 -112.39770 11979 ft 335 kts 86°
2026-04-26 17:31 33.32253 -112.37018 11679 ft 332 kts 86°
2026-04-26 17:31 33.32501 -112.34281 11362 ft 329 kts 86°
2026-04-26 17:31 33.32749 -112.31583 11032 ft 325 kts 86°
2026-04-26 17:31 33.32997 -112.28906 10726 ft 323 kts 86°
2026-04-26 17:32 33.33243 -112.26248 10413 ft 320 kts 86°
2026-04-26 17:32 33.33483 -112.23613 10095 ft 318 kts 86°
2026-04-26 17:32 33.33720 -112.20963 9775 ft 315 kts 86°
2026-04-26 17:32 33.33951 -112.18370 9435 ft 312 kts 86°
2026-04-26 17:33 33.34177 -112.15832 9318 ft 301 kts 85°
2026-04-26 17:33 33.34394 -112.13427 9200 ft 281 kts 86°
2026-04-26 17:33 33.34604 -112.11121 9088 ft 277 kts 86°
2026-04-26 17:34 33.34738 -112.06579 8654 ft 272 kts 94°
2026-04-26 17:34 33.34706 -112.04317 8360 ft 271 kts 94°
2026-04-26 17:34 33.34678 -112.02073 8078 ft 270 kts 93°
2026-04-26 17:34 33.34649 -111.99834 7779 ft 268 kts 94°
2026-04-26 17:35 33.34617 -111.97610 7508 ft 266 kts 93°
2026-04-26 17:35 33.34586 -111.95414 7231 ft 263 kts 93°
2026-04-26 17:35 33.34557 -111.93206 6964 ft 262 kts 92°
2026-04-26 17:35 33.34570 -111.91039 6691 ft 260 kts 90°
2026-04-26 17:36 33.34619 -111.88883 6400 ft 259 kts 89°
2026-04-26 17:36 33.34680 -111.86741 6099 ft 257 kts 90°
2026-04-26 17:36 33.34729 -111.84615 5806 ft 256 kts 91°
2026-04-26 17:36 33.34998 -111.82526 5524 ft 255 kts 66°
2026-04-26 17:37 33.36042 -111.80859 5233 ft 251 kts 35°
2026-04-26 17:37 33.37581 -111.79952 4927 ft 248 kts 11°
2026-04-26 17:37 33.39294 -111.79593 4622 ft 246 kts
2026-04-26 17:38 33.42449 -111.80529 4073 ft 224 kts 318°
2026-04-26 17:38 33.43455 -111.81865 3909 ft 211 kts 297°
2026-04-26 17:38 33.43978 -111.83465 3696 ft 205 kts 277°
2026-04-26 17:38 33.44053 -111.85145 3461 ft 201 kts 267°
2026-04-26 17:39 33.44056 -111.86820 3194 ft 202 kts 267°
2026-04-26 17:39 33.44060 -111.88526 2928 ft 201 kts 268°
2026-04-26 17:39 33.44065 -111.90123 2686 ft 184 kts 268°
2026-04-26 17:39 33.44069 -111.91568 2452 ft 162 kts 267°
2026-04-26 17:40 33.44072 -111.92860 2228 ft 147 kts 267°
2026-04-26 17:40 33.44073 -111.93253 2167 ft 144 kts 267°
2026-04-26 17:40 33.44075 -111.94846 1922 ft 140 kts 266°
2026-04-26 17:40 33.44077 -111.96030 1718 ft 140 kts 271°
2026-04-26 17:41 33.44080 -111.97228 1554 ft 145 kts 266°
2026-04-26 17:41 33.44081 -111.98405 1332 ft 141 kts 269°
2026-04-26 17:41 33.44082 -111.99597 1148 ft 138 kts 269°
2026-04-26 17:41 33.44083 -112.00586 1132 ft 96 kts 270°
2026-04-26 17:42 33.44084 -112.01137 1131 ft 35 kts 270°
2026-04-26 17:42 33.44042 -112.01346 1133 ft 21 kts 218°
2026-04-26 17:42 33.43977 -112.01320 1122 ft 11 kts 109°
2026-04-26 17:42 33.43972 -112.01216 1125 ft 13 kts 91°
2026-04-26 17:43 33.43928 -112.01121 1117 ft 15 kts 133°
2026-04-26 17:43 33.43899 -112.01012 1125 ft 15 kts 90°
2026-04-26 17:43 33.43899 -112.00885 1125 ft 16 kts 89°
2026-04-26 17:43 33.43901 -112.00746 1125 ft 17 kts 90°
2026-04-26 17:44 33.43901 -112.00599 1125 ft 18 kts 90°
2026-04-26 17:44 33.43903 -112.00443 1125 ft 19 kts 87°
2026-04-26 17:44 33.43904 -112.00307 1125 ft 10 kts 90°
2026-04-26 17:44 33.43904 -112.00278 1125 ft 1 kts 90°
2026-04-26 17:45 33.43904 -112.00254 1125 ft 5 kts 90°
2026-04-26 17:45 33.43884 -112.00232 1121 ft 4 kts 174°
2026-04-26 17:45 33.43867 -112.00229 1122 ft 1 kts 169°
2026-04-26 17:45 33.43846 -112.00222 1116 ft 5 kts 162°
2026-04-26 17:46 33.43832 -112.00216 1119 ft 0 kts 162°